Location: Appletree Creek
(38.7363°N, 122.6833°W)
Time: 10:53:52
(UTC+00:00)

Daily predictions for brighter satellites

Satellite Brightness Start Highest point End
(mag) Time Altitude Azimuth Time Altitude Azimuth Time Altitude Azimuth
CZ-4C R/B 3.4 12:06:00 52° NNW 12:06:00 52° NNW 12:08:50 10° NNW
Helios 1B 4.5 12:08:21 54° SW 12:09:01 62° W 12:13:19 10° NNW
BREEZE-M DEB (TANK) 4.5 12:07:01 35° WSW 12:10:35 83° NNW 12:38:20 10° ENE
Cosmos 1777 Rocket 4.0 12:05:43 10° NNW 12:10:47 52° WSW 12:15:48 10° S
Cosmos 2278 4.1 12:10:40 40° W 12:11:51 46° WNW 12:17:20 10° N
Meteor 1-4 Rocket 3.5 12:10:04 18° SSE 12:12:16 45° E 12:15:36 10° NNE
ADEOS II 4.2 12:10:17 10° NW 12:11:02 11° NW 12:11:02 11° NW
NOSS 3-3 (A) 3.7 12:15:21 32° SW 12:18:11 81° NW 12:24:31 10° NNE
NOSS 3-3 (C) 3.7 12:15:31 32° SW 12:18:18 81° WNW 12:24:36 10° NNE
IRIDIUM 114 4.5 12:13:53 10° N 12:19:07 75° E 12:24:20 10° S
Lacrosse 5 3.1 12:19:11 24° WNW 12:20:27 26° NNW 12:24:44 10° NNE
Cosmos 1727 Rocket 4.2 12:15:14 10° S 12:21:33 73° E 12:27:53 10° N
ADEOS 4.3 12:17:58 10° NNE 12:23:05 54° E 12:28:11 10° S
Cosmos 1238 Rocket 4.0 12:18:16 10° NNW 12:24:42 56° W 12:30:34 10° SSW
ERS-2 2.0 12:22:20 10° SSE 12:25:59 88° ENE 12:29:40 10° NNW
Cosmos 389 Rocket 4.2 12:27:24 20° NW 12:27:24 20° NW 12:29:02 10° NNW
IDEFIX/ARIANE 42P 3.7 12:22:43 10° NNW 12:26:54 25° WNW 12:27:17 24° WNW
USA 307 4.5 12:26:55 20° NW 12:28:02 22° NNW 12:31:23 10° NNE
IRIDIUM 103 4.3 12:23:00 10° N 12:28:15 89° W 12:33:28 10° S
Landsat 5 3.9 12:28:43 10° S 12:33:01 44° W 12:37:20 10° NNW
Cosmos 1812 2.9 12:36:03 26° SW 12:37:52 49° W 12:41:37 10° N
ARIANE 5 R/B 4.3 12:36:51 10° NNW 12:39:13 14° WNW 12:39:13 14° WNW
Cosmos 44 3.9 12:38:47 26° W 12:40:14 32° NW 12:44:22 10° NNE
SL-4 R/B 3.1 12:36:43 15° SSW 12:40:17 47° SE 12:44:51 10° ENE
X-37B 2.4 12:38:42 17° NW 12:40:19 25° N 12:43:02 10° ENE
IRIDIUM 106 4.3 12:41:25 10° N 12:46:33 59° W 12:51:39 10° SSW
FALCON 9 DEB 4.0 12:44:56 15° SSW 12:47:27 45° SE 12:50:45 10° ENE
deb Chang Zheng 4 3.5 12:43:40 10° NNE 12:47:58 84° WNW 12:52:14 10° SSW
Cosmos 1500 3.6 12:46:05 10° NNW 12:49:40 38° W 12:53:12 10° SSW
Cosmos 1707 Rocket 3.4 12:48:54 10° SSW 12:53:12 72° W 12:57:32 10° N
Cosmos 2360 Rocket 3.5 12:48:05 10° S 12:53:23 43° ESE 12:58:42 10° NE
USA 234 3.6 12:47:20 10° SSE 12:53:29 44° SW 12:59:41 10° WNW
Cosmos 841 Rocket 4.3 12:48:27 10° S 12:53:30 53° ESE 12:58:35 10° NNE
Cosmos 2228 Rocket 4.2 12:53:22 19° WSW 12:54:56 24° WNW 12:58:30 10° NNW
Cosmos 1666 2.6 12:51:55 10° N 12:55:44 81° W 12:59:31 10° S
ADEOS Rocket 3.2 12:49:32 10° S 12:56:37 69° WSW 13:03:01 10° NNW
Cosmos 921 Rocket 3.9 12:56:13 18° WSW 12:58:18 27° WNW 13:01:53 10° N
CZ-4B R/B 4.1 12:56:40 10° NNE 13:01:00 85° ESE 13:05:26 10° SSW
CZ-4B R/B 3.9 12:57:44 10° NNE 13:01:15 43° E 13:04:41 10° S
ALOS 2.2 12:58:12 10° N 13:02:53 83° WNW 13:07:33 10° SSW
Cosmos 1980 Rocket 3.6 13:00:54 14° W 13:03:44 20° NW 13:07:51 10° N
Cosmos 1763 Rocket 3.6 12:59:26 10° SSW 13:04:41 60° WNW 13:09:57 10° N
Cosmos 2322 Rocket 2.2 13:02:33 10° SSW 13:08:11 74° WNW 13:13:54 10° NNE
METEOR-M 4.1 13:06:42 10° NNE 13:12:05 85° WNW 13:17:26 10° SSW
FENGYUN 3A 3.6 13:07:45 10° N 13:13:07 69° WNW 13:18:28 10° SSW
CZ-4B R/B 1.8 13:11:13 10° SSW 13:14:06 35° W 13:17:04 10° NNW
SL-16 R/B 2.4 13:09:58 10° SW 13:15:28 52° WNW 13:21:01 10° NNE
ERBS 3.5 13:13:26 13° W 13:15:57 28° NW 13:18:53 10° NNE
Cosmos 1733 Rocket 3.0 13:11:56 10° N 13:16:18 89° E 13:20:37 10° S
Cosmos 2263 Rocket 2.4 13:10:58 10° NNW 13:16:26 51° WSW 13:21:54 10° S
Cosmos 2173 Rocket 4.0 13:13:37 10° N 13:19:57 78° W 13:26:18 10° S
Cosmos 1844 Rocket 4.4 13:18:25 10° N 13:23:38 37° ENE 13:28:50 10° SE
CZ-2C R/B 3.8 13:20:41 10° NNW 13:24:31 22° WNW 13:28:23 10° WSW
SAR-Lupe-4 4.1 13:22:09 10° SSW 13:25:28 36° W 13:28:49 10° NNW
Cosmos 1743 3.4 13:22:25 10° N 13:26:11 58° E 13:29:55 10° SSE
Cosmos 2061 Rocket 4.3 13:19:57 10° N 13:26:25 78° E 13:32:50 10° S
Cosmos 1862 Rocket 3.6 13:22:32 10° SSW 13:26:54 64° W 13:31:15 10° N
Cosmos 990 Rocket 4.2 13:24:54 10° NNW 13:29:53 48° WSW 13:34:52 10° S
